DW4129 Weather Reports


time (UTC)temp
C
wind
direction
speed
KPH
gust
KPH
rain 1hr
cm
rain 24hr
cm
rain mn
cm
humidity
%
barometer
mb
20260505093053 10 198 0.0 3.2 0.00 0.00 0.00 84 1015.5
20260505092554 10 201 0.0 3.2 0.00 0.00 0.00 84 1015.5
20260505092053 10 201 0.0 0.0 0.00 0.00 0.00 84 1015.5
20260505091616 10 0 0.0 3.2 0.00 0.00 0.00 84 1015.5
20260505091051 11 0 0.0 3.2 0.00 0.00 0.00 83 1015.4
20260505090551 11 197 0.0 3.2 0.00 0.00 0.00 83 1015.3
20260505090100 11 0 0.0 3.2 0.00 0.00 0.00 82 1015.3
20260505085551 11 0 0.0 3.2 0.00 0.00 0.00 82 1015.2
20260505085054 11 0 0.0 3.2 0.00 0.00 0.00 81 1015.3
20260505084600 11 198 0.0 3.2 0.00 0.00 0.00 80 1015.1
20260505084050 11 198 0.0 3.2 0.00 0.00 0.00 80 1015.1
20260505083551 11 0 0.0 3.2 0.00 0.00 0.00 79 1015.1
20260505083101 11 183 0.0 3.2 0.00 0.00 0.00 79 1015.1
20260505082551 12 0 0.0 3.2 0.00 0.00 0.00 79 1015.0
20260505082055 12 183 0.0 3.2 0.00 0.00 0.00 78 1015.0
20260505081600 12 183 0.0 3.2 0.00 0.00 0.00 77 1015.1
20260505081052 12 159 0.0 3.2 0.00 0.00 0.00 76 1015.0
20260505080556 12 210 1.6 3.2 0.00 0.00 0.00 76 1015.0
20260505080058 12 215 0.0 3.2 0.00 0.00 0.00 75 1015.0
20260505075555 12 146 0.0 3.2 0.00 0.00 0.00 75 1015.0
20260505075053 12 186 0.0 3.2 0.00 0.00 0.00 74 1015.0
20260505074600 13 0 0.0 3.2 0.00 0.00 0.00 73 1014.9
20260505074054 13 214 0.0 6.4 0.00 0.00 0.00 73 1014.9
20260505073554 13 258 1.6 6.4 0.00 0.00 0.00 72 1014.9
20260505073107 13 270 0.0 6.4 0.00 0.00 0.00 73 1014.9
20260505072551 13 182 1.6 6.4 0.00 0.00 0.00 72 1014.8
20260505072054 13 219 0.0 8.0 0.00 0.00 0.00 72 1014.8
20260505071559 13 225 0.0 8.0 0.00 0.00 0.00 71 1014.8
20260505071052 13 255 0.0 4.8 0.00 0.00 0.00 70 1014.8
20260505070555 14 221 1.6 9.7 0.00 0.00 0.00 69 1014.7
20260505065555 14 224 1.6 11.3 0.00 0.00 0.00 68 1014.6
20260505065052 14 225 3.2 11.3 0.00 0.00 0.00 68 1014.6
20260505064608 14 0 1.6 6.4 0.00 0.00 0.00 67 1014.7
20260505064055 14 264 1.6 6.4 0.00 0.00 0.00 66 1014.6
20260505063554 15 252 1.6 9.7 0.00 0.00 0.00 66 1014.6
20260505063054 15 290 1.6 9.7 0.00 0.00 0.00 66 1014.6
20260505062556 15 235 3.2 8.0 0.00 0.00 0.00 65 1014.6
20260505062056 15 254 3.2 9.7 0.00 0.00 0.00 65 1014.6
20260505061555 15 184 1.6 9.7 0.00 0.00 0.00 65 1014.6
20260505061056 15 264 1.6 9.7 0.00 0.00 0.00 65 1014.5
20260505060559 15 0 3.2 9.7 0.00 0.00 0.00 65 1014.6
20260505060059 15 267 3.2 11.3 0.00 0.00 0.00 65 1014.6
20260505055556 15 245 1.6 11.3 0.00 0.00 0.00 65 1014.6
20260505055056 15 255 1.6 6.4 0.00 0.00 0.00 64 1014.6
20260505054620 15 201 1.6 9.7 0.00 0.00 0.00 63 1014.6
20260505054101 15 304 4.8 9.7 0.00 0.00 0.00 63 1014.6
20260505053556 15 259 3.2 6.4 0.00 0.00 0.00 63 1014.7
20260505053057 15 246 1.6 8.0 0.00 0.00 0.00 63 1014.6
20260505052556 15 0 3.2 8.0 0.00 0.00 0.00 63 1014.6
20260505052056 15 238 3.2 8.0 0.00 0.00 0.00 63 1014.7
20260505051555 15 232 3.2 8.0 0.00 0.00 0.00 62 1014.8
20260505051057 15 360 1.6 8.0 0.00 0.00 0.00 62 1014.9
20260505050558 15 323 1.6 8.0 0.00 0.00 0.00 62 1014.9
20260505041609 16 308 3.2 8.0 0.00 0.00 0.00 57 1014.7
20260505041057 16 244 1.6 6.4 0.00 0.00 0.00 57 1014.7
20260505040557 16 269 1.6 4.8 0.00 0.00 0.00 56 1014.7
20260505040058 15 13 1.6 6.4 0.00 0.00 0.00 56 1014.6
20260505035556 15 207 1.6 6.4 0.00 0.00 0.00 58 1014.8
20260505035056 15 159 1.6 6.4 0.00 0.00 0.00 56 1014.8
20260505034556 16 191 1.6 9.7 0.00 0.00 0.00 55 1014.8
20260505034056 16 279 1.6 11.3 0.00 0.00 0.00 54 1014.8
20260505033556 16 275 1.6 11.3 0.00 0.00 0.00 56 1014.7
20260505033057 16 229 0.0 8.0 0.00 0.00 0.00 55 1014.7
20260505032555 15 219 0.0 4.8 0.00 0.00 0.00 55 1014.8
20260505032055 15 0 1.6 6.4 0.00 0.00 0.00 56 1014.7
20260505031608 15 231 1.6 6.4 0.00 0.00 0.00 58 1014.7
20260505031055 15 320 1.6 6.4 0.00 0.00 0.00 59 1014.7
20260505030556 15 261 3.2 6.4 0.00 0.00 0.00 58 1014.7
20260505030108 15 220 1.6 4.8 0.00 0.00 0.00 61 1014.7
20260505025557 15 226 1.6 4.8 0.00 0.00 0.00 59 1014.7
20260505025059 15 240 1.6 4.8 0.00 0.00 0.00 60 1014.7
20260505024618 15 167 0.0 4.8 0.00 0.00 0.00 63 1014.7
20260505024056 15 115 1.6 4.8 0.00 0.00 0.00 61 1014.7
20260505023556 15 211 1.6 4.8 0.00 0.00 0.00 58 1014.7
20260505023104 15 0 0.0 8.0 0.00 0.00 0.00 64 1014.7
20260505022559 15 0 1.6 8.0 0.00 0.00 0.00 63 1014.7
20260505022057 15 140 0.0 3.2 0.00 0.00 0.00 63 1014.6
20260505021601 15 162 0.0 3.2 0.00 0.00 0.00 63 1014.6
20260505021056 15 30 0.0 3.2 0.00 0.00 0.00 63 1014.6
20260505020555 15 350 0.0 4.8 0.00 0.00 0.00 63 1014.5
20260505020105 15 232 0.0 4.8 0.00 0.00 0.00 63 1014.5
20260505015557 15 211 0.0 3.2 0.00 0.00 0.00 62 1014.5
20260505015057 15 0 0.0 3.2 0.00 0.00 0.00 65 1014.5
20260505014606 15 242 0.0 3.2 0.00 0.00 0.00 64 1014.4
20260505014100 15 252 0.0 3.2 0.00 0.00 0.00 63 1014.4
20260505013556 15 210 0.0 3.2 0.00 0.00 0.00 63 1014.3
20260505013056 15 0 0.0 3.2 0.00 0.00 0.00 62 1014.2
20260505012557 16 210 0.0 3.2 0.00 0.00 0.00 61 1014.1
20260505012056 16 0 0.0 3.2 0.00 0.00 0.00 60 1014.0
20260505011557 16 0 0.0 3.2 0.00 0.00 0.00 60 1014.0
20260505011056 16 210 0.0 3.2 0.00 0.00 0.00 59 1014.0
20260505010558 16 210 0.0 3.2 0.00 0.00 0.00 57 1014.0
20260505010113 16 210 0.0 3.2 0.00 0.00 0.00 57 1014.0
20260505005556 17 0 0.0 3.2 0.00 0.00 0.00 56 1014.0
20260505005057 17 240 0.0 3.2 0.00 0.00 0.00 55 1013.8
20260505004557 17 240 0.0 3.2 0.00 0.00 0.00 54 1013.8
20260505004056 17 240 0.0 3.2 0.00 0.00 0.00 52 1013.8
20260505003556 18 0 0.0 3.2 0.00 0.00 0.00 52 1013.7
20260505003104 18 0 0.0 3.2 0.00 0.00 0.00 51 1013.7
20260505002556 18 240 0.0 1.6 0.00 0.00 0.00 50 1013.6
20260505002056 18 205 0.0 3.2 0.00 0.00 0.00 50 1013.6
20260505001556 18 0 0.0 3.2 0.00 0.00 0.00 49 1013.6
20260505001056 19 0 0.0 3.2 0.00 0.00 0.00 49 1013.6
20260505000556 19 0 0.0 3.2 0.00 0.00 0.00 47 1013.5
20260505000100 20 239 0.0 3.2 0.00 0.00 0.00 46 1013.6
20260504235557 20 0 0.0 3.2 0.00 0.00 0.00 46 1013.4
20260504235056 20 238 0.0 8.0 0.00 0.00 0.00 46 1013.3
20260504234555 21 0 0.0 8.0 0.00 0.00 0.00 44 1013.3
20260504234056 21 0 3.2 8.0 0.00 0.00 0.00 43 1013.3
20260504233600 21 230 1.6 4.8 0.00 0.00 0.00 44 1013.2
20260504233102 21 242 1.6 6.4 0.00 0.00 0.00 41 1013.2
20260504232557 22 240 1.6 8.0 0.00 0.00 0.00 40 1013.2
20260504232056 22 254 1.6 8.0 0.00 0.00 0.00 43 1013.2
20260504231557 22 271 1.6 9.7 0.00 0.00 0.00 41 1013.2
20260504231056 22 281 3.2 9.7 0.00 0.00 0.00 41 1013.2
20260504230556 23 270 1.6 17.7 0.00 0.00 0.00 38 1013.1
20260504230113 23 217 4.8 17.7 0.00 0.00 0.00 39 1013.2
20260504225557 23 215 3.2 9.7 0.00 0.00 0.00 37 1013.2
20260504225101 23 251 3.2 12.9 0.00 0.00 0.00 37 1013.1
20260504224612 23 170 1.6 12.9 0.00 0.00 0.00 36 1013.1
20260504224056 23 261 3.2 11.3 0.00 0.00 0.00 36 1013.1
20260504223557 23 200 3.2 11.3 0.00 0.00 0.00 35 1013.1
20260504223112 24 250 1.6 6.4 0.00 0.00 0.00 33 1013.1
20260504222556 24 242 3.2 12.9 0.00 0.00 0.00 36 1013.2
20260504222055 24 293 3.2 14.5 0.00 0.00 0.00 43 1013.1
20260504221555 24 242 4.8 14.5 0.00 0.00 0.00 35 1013.1
20260504221058 24 261 4.8 11.3 0.00 0.00 0.00 35 1013.2
20260504220557 24 234 4.8 11.3 0.00 0.00 0.00 35 1013.1
20260504220059 25 268 3.2 12.9 0.00 0.00 0.00 35 1013.2
20260504215557 24 205 4.8 12.9 0.00 0.00 0.00 38 1013.3
20260504215056 25 261 4.8 11.3 0.00 0.00 0.00 35 1013.3
20260504214557 25 213 4.8 11.3 0.00 0.00 0.00 34 1013.2
20260504214100 25 258 4.8 16.1 0.00 0.00 0.00 37 1013.2
20260504213556 25 250 3.2 17.7 0.00 0.00 0.00 39 1013.3
20260504213103 24 248 4.8 19.3 0.00 0.00 0.00 35 1013.2
20260504212600 25 244 9.7 19.3 0.00 0.00 0.00 34 1013.2
20260504212059 25 96 3.2 12.9 0.00 0.00 0.00 36 1013.2
20260504211600 25 261 6.4 12.9 0.00 0.00 0.00 36 1013.2
20260504211056 25 240 3.2 12.9 0.00 0.00 0.00 36 1013.1
20260504210559 25 195 4.8 12.9 0.00 0.00 0.00 35 1013.1
20260504210104 25 222 6.4 14.5 0.00 0.00 0.00 36 1013.0
20260504205556 25 150 4.8 14.5 0.00 0.00 0.00 37 1013.1
20260504205055 25 245 4.8 14.5 0.00 0.00 0.00 34 1013.2
20260504204556 24 238 4.8 16.1 0.00 0.00 0.00 36 1013.2
20260504204059 25 275 6.4 16.1 0.00 0.00 0.00 35 1013.3
20260504203556 25 273 3.2 14.5 0.00 0.00 0.00 36 1013.3
20260504203056 25 236 4.8 14.5 0.00 0.00 0.00 34 1013.3
20260504202556 25 334 3.2 16.1 0.00 0.00 0.00 34 1013.3
20260504202100 25 100 4.8 16.1 0.00 0.00 0.00 35 1013.3
20260504201559 25 279 4.8 16.1 0.00 0.00 0.00 36 1013.5
20260504201056 24 259 4.8 17.7 0.00 0.00 0.00 34 1013.4
20260504200556 24 260 8.0 17.7 0.00 0.00 0.00 34 1013.4
20260504200104 25 274 6.4 17.7 0.00 0.00 0.00 34 1013.5
20260504195555 25 202 6.4 17.7 0.00 0.00 0.00 33 1013.5
20260504195056 25 207 6.4 16.1 0.00 0.00 0.00 34 1013.7
20260504194556 25 244 3.2 17.7 0.00 0.00 0.00 36 1013.7
20260504194053 24 319 8.0 17.7 0.00 0.00 0.00 35 1013.8
20260504193556 24 241 6.4 12.9 0.00 0.00 0.00 34 1013.9
20260504193056 24 168 6.4 14.5 0.00 0.00 0.00 32 1014.0
20260504192555 24 267 4.8 14.5 0.00 0.00 0.00 34 1014.1
20260504192058 24 208 8.0 12.9 0.00 0.00 0.00 34 1014.2
20260504191608 24 311 8.0 12.9 0.00 0.00 0.00 34 1014.2
20260504191056 24 202 4.8 9.7 0.00 0.00 0.00 33 1014.2
20260504190559 24 242 4.8 11.3 0.00 0.00 0.00 32 1014.3
20260504190055 24 250 3.2 11.3 0.00 0.00 0.00 36 1014.3
20260504185556 23 246 6.4 17.7 0.00 0.00 0.00 34 1014.4
20260504185057 23 215 8.0 17.7 0.00 0.00 0.00 33 1014.4
20260504184555 23 254 6.4 14.5 0.00 0.00 0.00 33 1014.4
20260504184056 23 221 6.4 14.5 0.00 0.00 0.00 33 1014.3
20260504183556 24 251 6.4 12.9 0.00 0.00 0.00 35 1014.4
20260504183054 23 190 6.4 14.5 0.00 0.00 0.00 34 1014.5
20260504182559 23 201 4.8 14.5 0.00 0.00 0.00 33 1014.5
20260504182056 23 245 8.0 16.1 0.00 0.00 0.00 31 1014.6
20260504181556 23 211 4.8 16.1 0.00 0.00 0.00 34 1014.7
20260504181056 23 324 8.0 16.1 0.00 0.00 0.00 33 1014.8
20260504180557 23 261 3.2 11.3 0.00 0.00 0.00 35 1014.9
20260504180054 23 207 3.2 11.3 0.00 0.00 0.00 34 1014.9
20260504175556 23 205 6.4 12.9 0.00 0.00 0.00 33 1014.9
20260504175051 23 342 3.2 12.9 0.00 0.00 0.00 33 1015.0
20260504174556 23 233 4.8 11.3 0.00 0.00 0.00 34 1014.9
20260504174054 23 334 1.6 16.1 0.00 0.00 0.00 33 1015.0
20260504173552 23 257 4.8 16.1 0.00 0.00 0.00 37 1015.2
20260504173058 22 161 8.0 16.1 0.00 0.00 0.00 32 1015.3
20260504172552 22 267 4.8 14.5 0.00 0.00 0.00 38 1015.3
20260504172055 22 243 6.4 14.5 0.00 0.00 0.00 34 1015.3
20260504171604 22 350 6.4 16.1 0.00 0.00 0.00 34 1015.4
20260504171055 22 240 3.2 16.1 0.00 0.00 0.00 35 1015.4
20260504170555 22 309 6.4 16.1 0.00 0.00 0.00 40 1015.6
20260504160104 20 298 4.8 16.1 0.00 0.00 0.00 39 1016.4
20260504151054 20 292 4.8 11.3 0.00 0.00 0.00 44 1016.6
20260504150555 20 256 3.2 9.7 0.00 0.00 0.00 41 1016.6
20260504141054 17 224 4.8 6.4 0.00 0.00 0.00 55 1016.5
20260504140555 17 249 3.2 6.4 0.00 0.00 0.00 55 1016.5
20260504130554 14 325 1.6 4.8 0.00 0.00 0.00 72 1016.6
20260504120124 7 184 0.0 3.2 0.00 0.00 0.00 87 1016.8
20260504110556 4 0 0.0 3.2 0.00 0.00 0.00 89 1017.1
20260504100554 3 0 0.0 0.0 0.00 0.00 0.00 88 1016.8